Union Aéronautique de la Côte d'Azur

Union Aéronautique de la Côte d'Azur
UACA
Approuvé A.T.O. EASA – N°FR.ATO.0108

UNION des aéroclubs
Cannes “Ailes d’Azur”, Nice “Côte d’Azur”, Grasse “St Exupery”, ACCA “Francis Séverac”

Un cache-pitot se trouve à bord de chaque avion. Pensez à le mettre en place à la fin de chaque vol !

Avant de quitter l'avion, vérifiez que vous n'emportez pas la checklist

Un vol ne s'entreprend qu'avec un pare-brise parfaitement propre, il en va de votre sécurité, et de celle des autres

Après chaque vol, merci de mettre en place les pares-soleil!


Météo à Cannes:
METAR
LFMD 100700Z AUTO 31009KT 280V340 CAVOK 13/M00 Q1016 NOSIG =
LFMD 100200Z 1003/1103 32015G25KT CAVOK TEMPO 1003/1006 32020G35KT BECMG 1007/1011 VRB02KT

TAF
LFMD 100200Z 1003/1103 32015G25KT CAVOK TEMPO 1003/1006 32020G35KT BECMG 1007/1011 VRB02KT =

SR / SS: 06:59 / 15:51 UTC (LFMD 2018-12-10)